Location: Cosy Dell
(34.2789°N, 117.4537°W)
Time: 00:47:23
(UTC+00:00)

Cosmos 1666 - Pass Details

Date: 14 July 2020
Orbit: 497 x 521 km, 82.5° (Epoch: 12 August)

Event Time Altitude Azimuth Distance (km) Brightness Sun altitude
Exits shadow 10:42:36 21° 307° (NW) 1,199 4.5 -21.5°
Drops below altitude 10° 10:44:36 10° 336° (NNW) 1,722 5.6 -21.2°
Sets 10:47:03 0° 352° (N) 2,606 6.8 -20.9°
